Simultaneous Nadir Overpasses (SNOs) Predictions

Prediction of SNOs between GOES-14 and AQUA Satellite Orbit:

Table of predicted SNOs for the next 14.0 days since TLE Epoch: 3/11/2023
Index Date Time (GOES-14) GOES-14 Lat,Lon AQUA Lat,Lon Distance(km) Time Diff (sec)
1 03/11/2023 08:48:19 0.10,-107.87 -0.31,-106.03 209.86 80
2 03/11/2023 21:09:22 -0.11,-107.91 -0.82,-111.12 365.47 80
3 03/13/2023 20:58:29 -0.11,-107.92 -0.11,-107.82 11.77 80
4 03/15/2023 20:44:55 -0.12,-107.93 0.61,-104.51 388.58 80
5 03/16/2023 09:05:48 0.12,-107.90 0.50,-109.57 190.40 80
6 03/18/2023 08:49:32 0.13,-107.90 -0.20,-106.25 187.02 80
7 03/18/2023 21:10:35 -0.13,-107.93 -0.84,-111.36 389.44 80
8 03/20/2023 20:56:57 -0.13,-107.94 -0.16,-108.03 10.50 80
9 03/22/2023 20:45:58 -0.13,-107.95 0.55,-104.70 369.25 80
10 03/23/2023 09:06:49 0.14,-107.93 0.55,-109.75 207.58 80
